Regional Weather Roundup
Issued by NWS Wilmington, NC

Home | Current Version | Previous Version | Text Only | Print | Product List | Glossary On
Versions: 1 2 3 4 5 6 7 8 9 10 11 12 13 14 15 16 17 18 19 20 21 22 23 24 25 26 27 28 29 30 31 32 33 34 35 36 37 38 39 40 41 42 43 44 45 46 47 48 49 50
000
ASUS42 KILM 010010
RWRILM
RWRILM
REGIONAL HOURLY WEATHER ROUNDUP
NATIONAL WEATHER SERVICE WILMINGTON NC
800 PM EDT THU JUL 31 2014

NOTE: "FAIR" INDICATES FEW OR NO CLOUDS BELOW 12,000 FEET WITH NO
SIGNIFICANT WEATHER AND/OR OBSTRUCTIONS TO VISIBILITY.

...............WFO WILMINGTON COUNTY WARNING AREA...............

......COASTAL NC AND SC COUNTIES......

CITY           SKY/WX    TMP DP  RH WIND       PRES   REMARKS
WILMINGTON     CLOUDY    80  69  69 E10       30.10S
SOUTHPORT      CLOUDY    80  70  73 E7        30.08S
N MYRTLE BEACH CLOUDY    81  71  71 E14G22    30.07R
MYRTLE BEACH   MOCLDY    82  72  69 E17       30.06S

......INLAND NC AND SC COUNTIES.......

CITY           SKY/WX    TMP DP  RH WIND       PRES   REMARKS
LUMBERTON      CLOUDY    77  67  71 E6        30.10R
ELIZABETHTOWN  CLOUDY    77  67  70 CALM      30.11S
WHITEVILLE     CLOUDY    77  70  78 CALM      30.09R
FLORENCE       LGT RAIN  76  72  87 N8        30.09R
DARLINGTON     CLOUDY    72  66  83 N6        30.12S

....................REST OF NORTH CAROLINA......................

.........EASTERN NC.........

CITY           SKY/WX    TMP DP  RH WIND       PRES   REMARKS
CAPE HATTERAS  CLOUDY    77  64  64 NE5       30.13F
JACKSONVILLE   CLOUDY    77  66  69 E5        30.11F
MOREHEAD CITY  CLOUDY    80  68  66 E7        30.12R
KENANSVILLE    CLOUDY    76  68  76 CALM      30.13R
NEW BERN       CLOUDY    80  64  58 E5        30.14R
ELIZABETH CITY MOCLDY    76  64  66 SE7       30.15R

.........CENTRAL NC.........

CITY           SKY/WX    TMP DP  RH WIND       PRES   REMARKS
RALEIGH DURHAM CLOUDY    76  68  76 CALM      30.13S
ROCKY MOUNT    CLOUDY    76  69  79 CALM      30.13S
ROANOKE RAPIDS NOT AVBL
FAYETTEVILLE   LGT RAIN  75  72  90 CALM      30.11R
HOFFMAN        SHOWER    74  70  87 S7        30.14R

.........WESTERN NC.........

CITY           SKY/WX    TMP DP  RH WIND       PRES   REMARKS
CHARLOTTE      LGT RAIN  73  68  84 N8        30.12R
GREENSBORO     CLOUDY    74  68  81 E3        30.15R
HICKORY        NOT AVBL
BOONE          NOT AVBL
ASHEVILLE      NOT AVBL

.....................REST OF SOUTH CAROLINA.....................

.........EASTERN SC.........

CITY           SKY/WX    TMP DP  RH WIND       PRES   REMARKS
CHARLESTON     MOCLDY    77  73  87 NE5       30.02F
BEAUFORT MCAS  MOCLDY    80  74  81 E6        30.02R
HILTON HEAD    NOT AVBL

.........CENTRAL SC.........

CITY           SKY/WX    TMP DP  RH WIND       PRES   REMARKS
COLUMBIA       CLOUDY    74  68  81 E9        30.08R
ORANGEBURG     CLOUDY    76  70  82 NE7       30.06R
SUMTER SHAW    DRIZZLE   70  68  94 NE8       30.08R

.........WESTERN SC.........

CITY           SKY/WX    TMP DP  RH WIND       PRES   REMARKS
GREENVILLE     NOT AVBL
ROCK HILL      HVY RAIN  69  67  93 VRB3      30.14R FOG
ANDERSON       LGT RAIN  67  65  93 E3        30.13R FOG
CLEMSON        NOT AVBL
GREENWOOD      LGT RAIN  69  66  90 NE6       30.13R FOG


...................COASTAL AND OFFSHORE REPORTS..................

................LOCAL PIERS AND NC RESERVE................


STATION/POSITION TIME  SKY/WX   TEMP    WIND        PRES    VSBY
                                AIR SEA DIR/SP/G
                 (UTC)          (F)     (DEG/KT/KT) (MB)    (MI)
JOHNY MRCER PIER 0000            81 85   90/ 18/ 21 1018.6S
NC RESRV MASNBRO 2300            80      70/  6     1018.0S
OCEAN CREST PIER 0000            81 84   80/ 14/ 17 1017.6R
SPRINGMAID  PIER 0000            81 83   70/ 20/ 23 1017.9S


................COASTAL AND OFFSHORE BUOYS................


STATION/POSITION TIME  SKY/WX   TEMP    WIND        PRES    VSBY
                                AIR SEA DIR/SP/G
                 (UTC)          (F)     (DEG/KT/KT) (MB)    (MI)
DIMNDSHOAL 41025 0000                   VRB 14/ 17  1019.7F
WVE H/P(F/S)=  4/ 7 WND WVE H/P(F/S)=  3/ 6 SWL H/P/D(F/S/D)=  2/130/ 7

CAPE LOOKOUT     2300            80      90/ 15/ 17 1019.6R
ONSLOW BAY 41036 0000            81 81   90/ 17/ 19 1019.4F
WVE H/P(F/S)=  4/ 6 WND WVE H/P(F/S)=  3/ 6 SWL H/P/D(F/S/D)=  2/110/ 8

5 WRITEBCH 41038 2300            77 81   80/ 17/ 21   N/A
MASONBORO  41110 0000               81                N/A
WVE H/P(F/S)=  4/ 7 WND WVE H/P(F/S)=  5/ 7

WILM HARBR 41108 NOT AVBL
27WRITEBCH 41037 2300            78 81   90/ 17/ 19 1018.6R
FRYING PAN 41013 NOT AVBL
SUNST NRSH 41024 2300            82      90/ 17/ 21 1017.9S
CAPRS NRSH 41029 2300            80     100/ 10/ 12   N/A
EDISTO     41004 0000            82 83  140/ 16/ 17 1015.6S
WVE H/P(F/S)=  4/ 5 WND WVE H/P(F/S)=  3/ 5 SWL H/P/D(F/S/D)=  2/ 8



..........OFFSHORE BUOYS BEYOND 100 NM OFFSHORE...........
.....IN A TRIANGLE---HAT TO BERMUDA TO BAHAMAS TO HAT.....


STATION/POSITION TIME  SKY/WX   TEMP    WIND        PRES    VSBY
                                AIR SEA DIR/SP/G
                 (UTC)          (F)     (DEG/KT/KT) (MB)    (MI)
150E HAT   41001 NOT AVBL
W BERMUDA  41048 NOT AVBL
ATLANTIC S 41049 NOT AVBL
E BAHAMAS  41046 NOT AVBL
NE BAHAMAS 41047 NOT AVBL
120E CANVRL41010 0000            83 84  140/  6/  8 1016.5R
WVE H/P(F/S)=  2/ 8 WND WVE H/P(F/S)=  2/ 4 SWL H/P/D(F/S/D)=  2/ 90/ 8


END


USA.gov is the U.S. government's official web portal to all federal, state and local government web resources and services.